Time,TemperatureF,DewpointF,PressureIn,WindDirection,WindDirectionDegrees,WindSpeedMPH,WindSpeedGustMPH,Humidity,HourlyPrecipIn,Conditions,Clouds,dailyrainin,SoftwareType,DateUTC
2013-10-10 00:01:00,52.3,48.9,30.34,NNE,26,3.0,9.0,88,0.00,,,0.00,meteohub,2013-10-10 04:01:00,
2013-10-10 00:02:00,52.3,48.9,30.34,NE,39,1.0,9.0,88,0.00,,,0.00,meteohub,2013-10-10 04:02:00,
2013-10-10 00:07:00,52.3,48.9,30.34,North,353,8.0,9.0,88,0.00,,,0.00,meteohub,2013-10-10 04:07:00,
2013-10-10 00:12:00,52.3,48.9,30.34,NNW,342,2.0,9.0,88,0.00,,,0.00,meteohub,2013-10-10 04:12:00,
2013-10-10 00:17:00,52.2,48.7,30.34,NW,325,0.0,9.0,88,0.00,,,0.00,meteohub,2013-10-10 04:17:00,
2013-10-10 00:22:00,52.2,48.7,30.34,NNE,30,4.0,8.0,88,0.00,,,0.00,meteohub,2013-10-10 04:22:00,
2013-10-10 00:27:00,52.2,48.7,30.34,North,5,1.0,7.0,88,0.00,,,0.00,meteohub,2013-10-10 04:27:00,
2013-10-10 00:32:00,52.2,48.7,30.34,NNE,20,0.0,7.0,88,0.00,,,0.00,meteohub,2013-10-10 04:32:00,
2013-10-10 00:37:00,52.2,48.7,30.34,North,350,2.0,6.0,88,0.00,,,0.00,meteohub,2013-10-10 04:37:00,
2013-10-10 00:42:00,52.2,48.7,30.34,NNE,17,3.0,6.0,88,0.00,,,0.00,meteohub,2013-10-10 04:42:00,
2013-10-10 00:47:00,52.2,48.7,30.34,NNE,29,6.0,7.0,88,0.00,,,0.00,meteohub,2013-10-10 04:47:00,
2013-10-10 00:52:00,52.2,48.7,30.33,NNE,26,3.0,7.0,88,0.00,,,0.00,meteohub,2013-10-10 04:52:00,
2013-10-10 00:57:00,52.2,48.7,30.34,NNW,332,1.0,7.0,88,0.00,,,0.00,meteohub,2013-10-10 04:57:00,
2013-10-10 01:02:00,52.2,48.7,30.34,NNW,340,3.0,7.0,88,0.00,,,0.00,meteohub,2013-10-10 05:02:00,
2013-10-10 01:07:00,52.2,48.7,30.33,NNW,336,4.0,6.0,88,0.00,,,0.00,meteohub,2013-10-10 05:07:00,
2013-10-10 01:12:00,52.2,48.7,30.33,NE,36,3.0,8.0,88,0.00,,,0.00,meteohub,2013-10-10 05:12:00,
2013-10-10 01:17:00,52.2,48.7,30.33,North,0,2.0,8.0,88,0.00,,,0.00,meteohub,2013-10-10 05:17:00,
2013-10-10 01:22:00,52.0,48.6,30.33,North,11,4.0,8.0,88,0.00,,,0.00,meteohub,2013-10-10 05:22:00,
2013-10-10 01:27:00,52.0,48.6,30.33,North,3,3.0,5.0,88,0.00,,,0.00,meteohub,2013-10-10 05:27:00,
2013-10-10 01:32:00,52.0,48.6,30.33,NE,37,5.0,6.0,88,0.00,,,0.00,meteohub,2013-10-10 05:32:00,
2013-10-10 01:37:00,52.0,48.6,30.33,NE,36,4.0,6.0,88,0.00,,,0.00,meteohub,2013-10-10 05:37:00,
2013-10-10 01:42:00,52.2,48.7,30.32,North,356,5.0,6.0,88,0.00,,,0.00,meteohub,2013-10-10 05:42:00,
2013-10-10 01:47:00,52.2,48.7,30.32,North,0,5.0,8.0,88,0.00,,,0.00,meteohub,2013-10-10 05:47:00,
2013-10-10 01:52:00,52.2,48.7,30.32,NNE,15,3.0,8.0,88,0.00,,,0.00,meteohub,2013-10-10 05:52:00,
2013-10-10 01:57:00,52.2,48.7,30.32,NNW,330,1.0,8.0,88,0.00,,,0.00,meteohub,2013-10-10 05:57:00,
2013-10-10 02:02:00,52.2,48.7,30.32,NNW,341,2.0,8.0,88,0.00,,,0.00,meteohub,2013-10-10 06:02:00,
2013-10-10 02:07:00,52.0,48.6,30.32,NNW,345,4.0,8.0,88,0.00,,,0.00,meteohub,2013-10-10 06:07:00,
2013-10-10 02:12:00,52.0,48.6,30.32,NNW,342,1.0,6.0,88,0.00,,,0.00,meteohub,2013-10-10 06:12:00,
2013-10-10 02:17:00,52.0,48.6,30.32,North,8,4.0,6.0,88,0.00,,,0.00,meteohub,2013-10-10 06:17:00,
2013-10-10 02:22:00,52.0,48.6,30.32,NE,46,4.0,6.0,88,0.00,,,0.00,meteohub,2013-10-10 06:22:00,
2013-10-10 02:27:00,52.0,48.6,30.32,NW,319,2.0,6.0,88,0.00,,,0.00,meteohub,2013-10-10 06:27:00,
2013-10-10 02:32:00,52.0,48.6,30.32,NNE,15,5.0,7.0,88,0.00,,,0.00,meteohub,2013-10-10 06:32:00,
2013-10-10 02:37:00,52.0,48.6,30.32,North,11,5.0,8.0,88,0.00,,,0.00,meteohub,2013-10-10 06:37:00,
2013-10-10 02:42:00,52.0,48.6,30.31,ENE,58,4.0,8.0,88,0.00,,,0.00,meteohub,2013-10-10 06:42:00,
2013-10-10 02:47:00,52.0,48.6,30.31,NNE,30,4.0,8.0,88,0.00,,,0.00,meteohub,2013-10-10 06:47:00,
2013-10-10 02:52:00,52.0,48.6,30.31,North,6,6.0,10.0,88,0.00,,,0.00,meteohub,2013-10-10 06:52:00,
2013-10-10 02:56:00,52.2,48.4,30.31,NE,41,5.0,10.0,87,0.00,,,0.00,meteohub,2013-10-10 06:56:00,
2013-10-10 03:02:00,52.0,48.2,30.31,NNW,333,4.0,8.0,87,0.00,,,0.00,meteohub,2013-10-10 07:02:00,
2013-10-10 03:07:00,52.0,48.2,30.30,North,4,4.0,8.0,87,0.00,,,0.00,meteohub,2013-10-10 07:07:00,
2013-10-10 03:12:00,52.0,48.2,30.30,NNW,330,1.0,7.0,87,0.00,,,0.00,meteohub,2013-10-10 07:12:00,
2013-10-10 03:17:00,52.2,48.4,30.30,NW,315,4.0,9.0,87,0.00,,,0.00,meteohub,2013-10-10 07:17:00,
2013-10-10 03:22:00,52.0,48.2,30.30,North,4,3.0,9.0,87,0.00,,,0.00,meteohub,2013-10-10 07:22:00,
2013-10-10 03:27:00,52.2,48.7,30.30,North,9,4.0,9.0,88,0.00,,,0.00,meteohub,2013-10-10 07:27:00,
2013-10-10 03:32:00,52.2,48.4,30.30,NNE,33,2.0,8.0,87,0.00,,,0.00,meteohub,2013-10-10 07:32:00,
2013-10-10 03:37:00,52.2,48.4,30.30,NNW,342,4.0,8.0,87,0.00,,,0.00,meteohub,2013-10-10 07:37:00,
2013-10-10 03:42:00,52.2,48.4,30.30,North,350,3.0,8.0,87,0.00,,,0.00,meteohub,2013-10-10 07:42:00,
2013-10-10 03:47:00,52.3,48.6,30.29,North,7,4.0,8.0,87,0.00,,,0.00,meteohub,2013-10-10 07:47:00,
2013-10-10 03:52:00,52.3,48.6,30.29,NNW,330,2.0,11.0,87,0.00,,,0.00,meteohub,2013-10-10 07:52:00,
2013-10-10 03:57:00,52.3,48.6,30.29,NE,49,2.0,11.0,87,0.00,,,0.00,meteohub,2013-10-10 07:57:00,
2013-10-10 04:02:00,52.5,48.7,30.29,NE,36,3.0,11.0,87,0.00,,,0.00,meteohub,2013-10-10 08:02:00,
2013-10-10 04:07:00,52.7,48.9,30.29,North,4,5.0,10.0,87,0.00,,,0.00,meteohub,2013-10-10 08:07:00,
2013-10-10 04:12:00,52.9,49.1,30.30,North,358,4.0,10.0,87,0.00,,,0.00,meteohub,2013-10-10 08:12:00,
2013-10-10 04:17:00,53.1,49.3,30.30,NNE,33,2.0,9.0,87,0.00,,,0.00,meteohub,2013-10-10 08:17:00,
2013-10-10 04:22:00,53.4,49.3,30.30,NE,53,6.0,11.0,86,0.00,,,0.00,meteohub,2013-10-10 08:22:00,
2013-10-10 04:27:00,53.8,49.5,30.30,NE,53,3.0,11.0,85,0.00,,,0.00,meteohub,2013-10-10 08:27:00,
2013-10-10 04:32:00,53.8,49.5,30.30,NE,56,7.0,11.0,85,0.00,,,0.00,meteohub,2013-10-10 08:32:00,
2013-10-10 04:37:00,54.0,49.6,30.30,NNE,20,6.0,10.0,85,0.00,,,0.00,meteohub,2013-10-10 08:37:00,
2013-10-10 04:42:00,54.0,49.6,30.30,ENE,58,4.0,8.0,85,0.00,,,0.00,meteohub,2013-10-10 08:42:00,
2013-10-10 04:47:00,54.1,49.8,30.31,ENE,63,6.0,9.0,85,0.00,,,0.00,meteohub,2013-10-10 08:47:00,
2013-10-10 04:52:00,54.1,49.8,30.31,NNE,32,0.0,9.0,85,0.00,,,0.00,meteohub,2013-10-10 08:52:00,
2013-10-10 04:57:00,54.1,49.8,30.31,ENE,64,4.0,9.0,85,0.00,,,0.00,meteohub,2013-10-10 08:57:00,
2013-10-10 05:02:00,54.1,49.8,30.30,NE,39,2.0,9.0,85,0.00,,,0.00,meteohub,2013-10-10 09:02:00,
2013-10-10 05:07:00,54.1,49.8,30.30,North,1,3.0,8.0,85,0.00,,,0.00,meteohub,2013-10-10 09:07:00,
2013-10-10 05:12:00,54.1,49.8,30.30,NNE,23,1.0,8.0,85,0.00,,,0.00,meteohub,2013-10-10 09:12:00,
2013-10-10 05:17:00,54.1,49.8,30.30,NNE,27,2.0,8.0,85,0.00,,,0.00,meteohub,2013-10-10 09:17:00,
2013-10-10 05:22:00,54.3,49.8,30.30,NNE,33,13.0,13.0,85,0.00,,,0.00,meteohub,2013-10-10 09:22:00,
2013-10-10 05:27:00,54.3,49.8,30.29,ENE,59,4.0,13.0,85,0.00,,,0.00,meteohub,2013-10-10 09:27:00,
2013-10-10 05:32:00,54.3,49.8,30.29,NE,39,3.0,13.0,85,0.00,,,0.00,meteohub,2013-10-10 09:32:00,
2013-10-10 05:37:00,54.5,50.0,30.29,NNE,27,7.0,13.0,85,0.00,,,0.00,meteohub,2013-10-10 09:37:00,
2013-10-10 05:42:00,54.5,50.0,30.29,East,79,7.0,12.0,85,0.00,,,0.00,meteohub,2013-10-10 09:42:00,
2013-10-10 05:47:00,54.7,50.2,30.30,NNE,30,5.0,12.0,85,0.00,,,0.00,meteohub,2013-10-10 09:47:00,
2013-10-10 05:52:00,54.7,50.5,30.30,NE,53,3.0,11.0,86,0.00,,,0.00,meteohub,2013-10-10 09:52:00,
2013-10-10 05:57:00,54.7,50.5,30.30,NNE,33,6.0,11.0,86,0.00,,,0.00,meteohub,2013-10-10 09:57:00,
2013-10-10 06:02:00,54.7,50.5,30.30,NNE,23,5.0,11.0,86,0.00,,,0.00,meteohub,2013-10-10 10:02:00,
2013-10-10 06:07:00,54.7,50.5,30.29,NNW,348,5.0,11.0,86,0.00,,,0.00,meteohub,2013-10-10 10:07:00,
2013-10-10 06:12:00,54.7,50.5,30.29,North,11,7.0,13.0,86,0.00,,,0.00,meteohub,2013-10-10 10:12:00,
2013-10-10 06:17:00,54.5,50.4,30.29,North,6,9.0,13.0,86,0.00,,,0.00,meteohub,2013-10-10 10:17:00,
2013-10-10 06:22:00,54.3,50.5,30.29,NNE,25,0.0,13.0,87,0.00,,,0.00,meteohub,2013-10-10 10:22:00,
2013-10-10 06:27:00,54.3,50.5,30.29,NNE,20,4.0,12.0,87,0.00,,,0.00,meteohub,2013-10-10 10:27:00,
2013-10-10 06:32:00,54.3,50.5,30.29,North,8,3.0,10.0,87,0.00,,,0.00,meteohub,2013-10-10 10:32:00,
2013-10-10 06:37:00,54.3,50.5,30.29,NNE,23,8.0,8.0,87,0.00,,,0.00,meteohub,2013-10-10 10:37:00,
2013-10-10 06:42:00,54.1,50.7,30.29,NNW,333,4.0,9.0,88,0.00,,,0.00,meteohub,2013-10-10 10:42:00,
2013-10-10 06:47:00,54.0,50.5,30.29,NNE,27,3.0,9.0,88,0.00,,,0.00,meteohub,2013-10-10 10:47:00,
2013-10-10 06:52:00,54.0,50.5,30.29,NNE,25,3.0,9.0,88,0.00,,,0.00,meteohub,2013-10-10 10:52:00,
2013-10-10 06:57:00,53.8,50.5,30.29,NNW,337,4.0,8.0,89,0.00,,,0.00,meteohub,2013-10-10 10:57:00,
2013-10-10 07:02:00,53.8,50.5,30.29,NNW,338,2.0,10.0,89,0.00,,,0.00,meteohub,2013-10-10 11:02:00,
2013-10-10 07:07:00,53.6,50.4,30.29,NNE,13,6.0,10.0,89,0.00,,,0.00,meteohub,2013-10-10 11:07:00,
2013-10-10 07:12:00,53.6,50.4,30.29,NNW,342,5.0,9.0,89,0.00,,,0.00,meteohub,2013-10-10 11:12:00,
2013-10-10 07:17:00,53.6,50.7,30.29,NE,55,3.0,9.0,90,0.00,,,0.00,meteohub,2013-10-10 11:17:00,
2013-10-10 07:22:00,53.6,50.7,30.29,NNE,25,3.0,9.0,90,0.00,,,0.00,meteohub,2013-10-10 11:22:00,
2013-10-10 07:27:00,53.8,50.9,30.29,NNE,16,5.0,9.0,90,0.00,,,0.00,meteohub,2013-10-10 11:27:00,
2013-10-10 07:32:00,53.8,50.9,30.29,NE,45,4.0,9.0,90,0.00,,,0.00,meteohub,2013-10-10 11:32:00,
2013-10-10 07:37:00,54.0,51.1,30.29,ENE,58,7.0,9.0,90,0.00,,,0.00,meteohub,2013-10-10 11:37:00,
2013-10-10 07:42:00,54.1,51.3,30.29,NNE,20,3.0,9.0,90,0.00,,,0.00,meteohub,2013-10-10 11:42:00,
2013-10-10 07:47:00,54.1,51.3,30.29,NE,36,3.0,10.0,90,0.00,,,0.00,meteohub,2013-10-10 11:47:00,
2013-10-10 07:52:00,54.3,51.4,30.29,NNE,17,3.0,10.0,90,0.00,,,0.00,meteohub,2013-10-10 11:52:00,
2013-10-10 07:57:00,54.5,51.6,30.29,ENE,65,4.0,10.0,90,0.00,,,0.00,meteohub,2013-10-10 11:57:00,
2013-10-10 08:02:00,54.7,51.8,30.29,NNE,13,7.0,10.0,90,0.00,,,0.00,meteohub,2013-10-10 12:02:00,
2013-10-10 08:07:00,54.9,51.6,30.29,NE,39,9.0,11.0,89,0.00,,,0.00,meteohub,2013-10-10 12:07:00,
2013-10-10 08:12:00,55.0,51.8,30.29,NE,47,5.0,11.0,89,0.00,,,0.00,meteohub,2013-10-10 12:12:00,
2013-10-10 08:17:00,55.2,52.0,30.29,NNE,29,8.0,11.0,89,0.00,,,0.00,meteohub,2013-10-10 12:17:00,
2013-10-10 08:22:00,55.4,52.2,30.29,NNW,347,6.0,10.0,89,0.00,,,0.00,meteohub,2013-10-10 12:22:00,
2013-10-10 08:27:00,55.6,52.2,30.29,NNE,15,0.0,11.0,88,0.00,,,0.00,meteohub,2013-10-10 12:27:00,
2013-10-10 08:32:00,55.8,52.3,30.29,NE,51,5.0,14.0,88,0.00,,,0.00,meteohub,2013-10-10 12:32:00,
2013-10-10 08:37:00,55.9,52.5,30.29,North,5,4.0,14.0,88,0.00,,,0.00,meteohub,2013-10-10 12:37:00,
2013-10-10 08:42:00,55.9,52.5,30.29,NNE,20,9.0,14.0,88,0.00,,,0.00,meteohub,2013-10-10 12:42:00,
2013-10-10 08:47:00,56.1,52.7,30.29,NNE,31,6.0,14.0,88,0.00,,,0.00,meteohub,2013-10-10 12:47:00,
2013-10-10 08:52:00,56.3,52.5,30.29,NNE,33,4.0,14.0,87,0.00,,,0.00,meteohub,2013-10-10 12:52:00,
2013-10-10 08:57:00,56.5,52.7,30.29,NE,53,6.0,13.0,87,0.00,,,0.00,meteohub,2013-10-10 12:57:00,
2013-10-10 09:02:00,56.7,52.9,30.29,NE,55,4.0,12.0,87,0.00,,,0.00,meteohub,2013-10-10 13:02:00,
2013-10-10 09:07:00,57.0,53.2,30.29,North,356,6.0,13.0,87,0.00,,,0.00,meteohub,2013-10-10 13:07:00,
2013-10-10 09:12:00,57.4,53.2,30.29,NNE,33,6.0,13.0,86,0.00,,,0.00,meteohub,2013-10-10 13:12:00,
2013-10-10 09:17:00,57.4,53.2,30.29,ENE,75,3.0,13.0,86,0.00,,,0.00,meteohub,2013-10-10 13:17:00,
2013-10-10 09:22:00,57.6,53.4,30.29,North,352,7.0,13.0,86,0.00,,,0.00,meteohub,2013-10-10 13:22:00,
2013-10-10 09:27:00,57.7,53.6,30.29,NE,46,4.0,13.0,86,0.00,,,0.00,meteohub,2013-10-10 13:27:00,
2013-10-10 09:32:00,57.6,53.1,30.29,NE,53,6.0,13.0,85,0.00,,,0.00,meteohub,2013-10-10 13:32:00,
2013-10-10 09:37:00,57.6,53.4,30.29,NE,43,7.0,11.0,86,0.00,,,0.00,meteohub,2013-10-10 13:37:00,
2013-10-10 09:42:00,57.4,53.2,30.29,NNE,13,8.0,11.0,86,0.00,,,0.00,meteohub,2013-10-10 13:42:00,
2013-10-10 09:47:00,57.4,53.2,30.29,NNE,18,8.0,11.0,86,0.00,,,0.00,meteohub,2013-10-10 13:47:00,
2013-10-10 09:52:00,57.4,53.2,30.28,NNE,25,9.0,12.0,86,0.00,,,0.00,meteohub,2013-10-10 13:52:00,
2013-10-10 09:57:00,57.6,53.4,30.28,NE,36,8.0,14.0,86,0.00,,,0.00,meteohub,2013-10-10 13:57:00,
2013-10-10 10:02:00,57.7,53.6,30.28,North,7,10.0,14.0,86,0.00,,,0.00,meteohub,2013-10-10 14:02:00,
2013-10-10 10:07:00,58.3,53.8,30.28,East,93,3.0,14.0,85,0.00,,,0.00,meteohub,2013-10-10 14:07:00,
2013-10-10 10:12:00,58.6,54.1,30.28,NNE,25,4.0,15.0,85,0.00,,,0.00,meteohub,2013-10-10 14:12:00,
2013-10-10 10:17:00,59.2,54.0,30.27,NE,49,9.0,15.0,83,0.00,,,0.00,meteohub,2013-10-10 14:17:00,
2013-10-10 10:22:00,59.2,54.3,30.27,NNE,20,8.0,15.0,84,0.00,,,0.00,meteohub,2013-10-10 14:22:00,
2013-10-10 10:27:00,59.2,54.0,30.27,ENE,60,9.0,14.0,83,0.00,,,0.00,meteohub,2013-10-10 14:27:00,
2013-10-10 10:32:00,59.5,54.7,30.27,NE,43,4.0,14.0,84,0.00,,,0.00,meteohub,2013-10-10 14:32:00,
2013-10-10 10:37:00,59.5,54.3,30.27,East,81,7.0,14.0,83,0.00,,,0.00,meteohub,2013-10-10 14:37:00,
2013-10-10 10:42:00,59.9,54.7,30.27,NNE,25,6.0,15.0,83,0.00,,,0.00,meteohub,2013-10-10 14:42:00,
2013-10-10 10:47:00,60.3,55.0,30.27,NE,43,14.0,15.0,83,0.00,,,0.00,meteohub,2013-10-10 14:47:00,
2013-10-10 10:52:00,60.3,54.7,30.27,NNE,20,11.0,17.0,82,0.00,,,0.00,meteohub,2013-10-10 14:52:00,
2013-10-10 10:57:00,60.4,55.2,30.27,North,11,4.0,17.0,83,0.00,,,0.00,meteohub,2013-10-10 14:57:00,
2013-10-10 11:02:00,60.6,55.0,30.27,NE,51,7.0,17.0,82,0.00,,,0.00,meteohub,2013-10-10 15:02:00,
2013-10-10 11:07:00,61.0,55.4,30.26,North,356,6.0,16.0,82,0.00,,,0.00,meteohub,2013-10-10 15:07:00,
2013-10-10 11:12:00,61.0,55.0,30.25,NNE,18,11.0,15.0,81,0.00,,,0.00,meteohub,2013-10-10 15:12:00,
2013-10-10 11:17:00,61.0,55.4,30.25,NE,46,7.0,13.0,82,0.00,,,0.00,meteohub,2013-10-10 15:17:00,
2013-10-10 11:22:00,61.0,55.4,30.25,NE,53,4.0,14.0,82,0.00,,,0.00,meteohub,2013-10-10 15:22:00,
2013-10-10 11:27:00,61.0,55.8,30.25,ENE,75,8.0,14.0,83,0.00,,,0.00,meteohub,2013-10-10 15:27:00,
2013-10-10 11:32:00,61.2,55.6,30.25,North,7,4.0,12.0,82,0.00,,,0.00,meteohub,2013-10-10 15:32:00,
2013-10-10 11:37:00,61.3,55.8,30.25,NNE,17,10.0,12.0,82,0.00,,,0.00,meteohub,2013-10-10 15:37:00,
2013-10-10 11:42:00,61.3,55.8,30.25,NNE,27,4.0,13.0,82,0.00,,,0.00,meteohub,2013-10-10 15:42:00,
2013-10-10 11:47:00,61.3,55.8,30.25,NE,40,7.0,13.0,82,0.00,,,0.00,meteohub,2013-10-10 15:47:00,
2013-10-10 11:52:00,61.5,55.9,30.25,NNE,30,4.0,12.0,82,0.00,,,0.00,meteohub,2013-10-10 15:52:00,
2013-10-10 11:57:00,61.9,56.3,30.25,NNW,348,6.0,11.0,82,0.00,,,0.00,meteohub,2013-10-10 15:57:00,
2013-10-10 12:02:00,62.1,56.5,30.24,ENE,60,3.0,11.0,82,0.00,,,0.00,meteohub,2013-10-10 16:02:00,
2013-10-10 12:07:00,62.4,56.5,30.24,NE,37,5.0,11.0,81,0.00,,,0.00,meteohub,2013-10-10 16:07:00,
2013-10-10 12:12:00,62.8,57.2,30.24,NNE,22,2.0,11.0,82,0.00,,,0.00,meteohub,2013-10-10 16:12:00,
2013-10-10 12:17:00,63.1,56.8,30.24,NE,54,6.0,11.0,80,0.00,,,0.00,meteohub,2013-10-10 16:17:00,
2013-10-10 12:22:00,63.9,57.2,30.24,ENE,75,6.0,11.0,79,0.00,,,0.00,meteohub,2013-10-10 16:22:00,
2013-10-10 12:27:00,64.0,57.4,30.24,ENE,58,5.0,11.0,79,0.00,,,0.00,meteohub,2013-10-10 16:27:00,
2013-10-10 12:32:00,64.0,57.7,30.24,NNE,23,4.0,12.0,80,0.00,,,0.00,meteohub,2013-10-10 16:32:00,
2013-10-10 12:37:00,64.4,57.4,30.24,NE,34,3.0,12.0,78,0.00,,,0.00,meteohub,2013-10-10 16:37:00,
2013-10-10 12:42:00,64.4,57.4,30.23,NNE,18,8.0,12.0,78,0.00,,,0.00,meteohub,2013-10-10 16:42:00,
2013-10-10 12:47:00,64.8,57.7,30.23,NE,43,5.0,12.0,78,0.00,,,0.00,meteohub,2013-10-10 16:47:00,
2013-10-10 12:52:00,64.9,57.6,30.23,North,6,3.0,12.0,77,0.00,,,0.00,meteohub,2013-10-10 16:52:00,
2013-10-10 12:57:00,64.9,57.6,30.23,NE,49,4.0,11.0,77,0.00,,,0.00,meteohub,2013-10-10 16:57:00,
2013-10-10 13:02:00,65.3,57.9,30.22,NE,37,5.0,14.0,77,0.00,,,0.00,meteohub,2013-10-10 17:02:00,
2013-10-10 13:07:00,65.5,58.1,30.23,ENE,75,7.0,14.0,77,0.00,,,0.00,meteohub,2013-10-10 17:07:00,
2013-10-10 13:12:00,65.1,57.7,30.23,ENE,58,5.0,14.0,77,0.00,,,0.00,meteohub,2013-10-10 17:12:00,
2013-10-10 13:17:00,65.1,57.7,30.24,ENE,72,3.0,12.0,77,0.00,,,0.00,meteohub,2013-10-10 17:17:00,
2013-10-10 13:22:00,65.1,57.7,30.24,East,81,2.0,12.0,77,0.00,,,0.00,meteohub,2013-10-10 17:22:00,
2013-10-10 13:27:00,65.1,57.7,30.22,NE,40,5.0,10.0,77,0.00,,,0.00,meteohub,2013-10-10 17:27:00,
2013-10-10 13:32:00,65.1,57.7,30.22,East,92,8.0,13.0,77,0.00,,,0.00,meteohub,2013-10-10 17:32:00,
2013-10-10 13:37:00,65.1,58.1,30.22,ENE,72,6.0,13.0,78,0.00,,,0.00,meteohub,2013-10-10 17:37:00,
2013-10-10 13:42:00,65.1,58.1,30.22,East,99,9.0,13.0,78,0.00,,,0.00,meteohub,2013-10-10 17:42:00,
2013-10-10 13:47:00,64.8,58.1,30.22,ENE,63,4.0,12.0,79,0.00,,,0.00,meteohub,2013-10-10 17:47:00,
2013-10-10 13:52:00,64.8,58.1,30.22,NE,35,2.0,12.0,79,0.00,,,0.00,meteohub,2013-10-10 17:52:00,
2013-10-10 13:57:00,64.9,58.3,30.21,East,79,8.0,12.0,79,0.00,,,0.00,meteohub,2013-10-10 17:57:00,
2013-10-10 14:02:00,64.8,58.1,30.21,ENE,61,7.0,11.0,79,0.00,,,0.00,meteohub,2013-10-10 18:02:00,
2013-10-10 14:07:00,64.8,58.1,30.21,NE,40,10.0,11.0,79,0.00,,,0.00,meteohub,2013-10-10 18:07:00,
2013-10-10 14:12:00,64.8,58.1,30.21,ENE,72,7.0,11.0,79,0.00,,,0.00,meteohub,2013-10-10 18:12:00,
2013-10-10 14:17:00,64.8,58.1,30.21,ESE,108,0.0,11.0,79,0.00,,,0.00,meteohub,2013-10-10 18:17:00,
2013-10-10 14:22:00,64.8,58.1,30.22,NE,49,3.0,10.0,79,0.00,,,0.00,meteohub,2013-10-10 18:22:00,
2013-10-10 14:27:00,64.8,58.1,30.22,NE,45,4.0,9.0,79,0.00,,,0.00,meteohub,2013-10-10 18:27:00,
2013-10-10 14:32:00,64.8,58.5,30.21,NNE,33,0.0,9.0,80,0.00,,,0.00,meteohub,2013-10-10 18:32:00,
2013-10-10 14:37:00,64.9,58.3,30.21,NNE,26,7.0,8.0,79,0.00,,,0.00,meteohub,2013-10-10 18:37:00,
2013-10-10 14:42:00,64.8,58.1,30.21,NNW,343,4.0,8.0,79,0.00,,,0.00,meteohub,2013-10-10 18:42:00,
2013-10-10 14:48:00,64.8,58.1,30.21,North,353,2.0,9.0,79,0.00,,,0.00,meteohub,2013-10-10 18:48:00,
2013-10-10 14:53:00,64.8,58.1,30.20,NNW,328,4.0,11.0,79,0.00,,,0.00,meteohub,2013-10-10 18:53:00,
2013-10-10 14:58:00,64.8,58.1,30.20,NNE,25,9.0,11.0,79,0.00,,,0.00,meteohub,2013-10-10 18:58:00,
2013-10-10 15:03:00,64.8,58.5,30.20,NE,53,3.0,11.0,80,0.00,,,0.00,meteohub,2013-10-10 19:03:00,
2013-10-10 15:08:00,64.6,57.9,30.20,NE,51,6.0,11.0,79,0.00,,,0.00,meteohub,2013-10-10 19:08:00,
2013-10-10 15:13:00,64.6,58.3,30.19,NNW,333,5.0,11.0,80,0.00,,,0.00,meteohub,2013-10-10 19:13:00,
2013-10-10 15:18:00,64.8,58.5,30.20,NNE,22,5.0,11.0,80,0.00,,,0.00,meteohub,2013-10-10 19:18:00,
2013-10-10 15:23:00,64.6,58.3,30.20,NNW,342,6.0,12.0,80,0.00,,,0.00,meteohub,2013-10-10 19:23:00,
2013-10-10 15:28:00,64.4,58.1,30.20,NNE,13,7.0,12.0,80,0.00,,,0.00,meteohub,2013-10-10 19:28:00,
2013-10-10 15:33:00,64.2,57.9,30.19,NE,34,3.0,13.0,80,0.00,,,0.00,meteohub,2013-10-10 19:33:00,
2013-10-10 15:38:00,64.4,58.5,30.19,NE,49,1.0,13.0,81,0.00,,,0.00,meteohub,2013-10-10 19:38:00,
2013-10-10 15:43:00,64.4,58.1,30.19,NNE,23,9.0,12.0,80,0.00,,,0.00,meteohub,2013-10-10 19:43:00,
2013-10-10 15:48:00,64.2,57.9,30.18,NNE,16,7.0,12.0,80,0.00,,,0.00,meteohub,2013-10-10 19:48:00,
2013-10-10 15:53:00,64.0,58.1,30.18,NE,51,7.0,13.0,81,0.00,,,0.00,meteohub,2013-10-10 19:53:00,
2013-10-10 15:58:00,63.9,57.9,30.18,NNE,12,11.0,16.0,81,0.00,,,0.00,meteohub,2013-10-10 19:58:00,
2013-10-10 16:03:00,63.7,58.1,30.18,NE,36,6.0,16.0,82,0.00,,,0.00,meteohub,2013-10-10 20:03:00,
2013-10-10 16:08:00,63.5,57.9,30.19,North,356,4.0,16.0,82,0.00,,,0.00,meteohub,2013-10-10 20:08:00,
2013-10-10 16:13:00,63.3,57.7,30.19,NNE,25,0.0,14.0,82,0.00,,,0.00,meteohub,2013-10-10 20:13:00,
2013-10-10 16:18:00,63.5,58.3,30.19,ESE,121,0.0,13.0,83,0.00,,,0.00,meteohub,2013-10-10 20:18:00,
2013-10-10 16:23:00,63.5,58.3,30.19,NE,36,2.0,12.0,83,0.00,,,0.00,meteohub,2013-10-10 20:23:00,
2013-10-10 16:28:00,63.5,58.3,30.19,NE,45,15.0,15.0,83,0.00,,,0.00,meteohub,2013-10-10 20:28:00,
2013-10-10 16:31:00,63.3,57.7,30.19,NE,51,7.0,15.0,82,0.00,,,0.00,meteohub,2013-10-10 20:31:00,
2013-10-10 16:36:00,63.3,58.1,30.19,ENE,72,4.0,15.0,83,0.00,,,0.00,meteohub,2013-10-10 20:36:00,
2013-10-10 16:41:00,63.1,57.9,30.18,ENE,58,11.0,15.0,83,0.00,,,0.00,meteohub,2013-10-10 20:41:00,
2013-10-10 16:46:00,63.1,57.9,30.18,NNE,30,6.0,15.0,83,0.00,,,0.00,meteohub,2013-10-10 20:46:00,
2013-10-10 16:51:00,62.8,57.6,30.18,NNE,13,16.0,17.0,83,0.00,,,0.00,meteohub,2013-10-10 20:51:00,
2013-10-10 16:56:00,62.6,57.4,30.18,NE,44,5.0,17.0,83,0.00,,,0.00,meteohub,2013-10-10 20:56:00,
2013-10-10 17:01:00,62.4,57.6,30.18,NNE,30,6.0,17.0,84,0.00,,,0.00,meteohub,2013-10-10 21:01:00,
2013-10-10 17:06:00,62.4,57.6,30.18,NNE,26,10.0,16.0,84,0.00,,,0.00,meteohub,2013-10-10 21:06:00,
2013-10-10 17:11:00,62.2,57.4,30.17,ENE,63,4.0,12.0,84,0.00,,,0.00,meteohub,2013-10-10 21:11:00,
2013-10-10 17:16:00,62.1,57.2,30.17,NNE,25,9.0,15.0,84,0.00,,,0.00,meteohub,2013-10-10 21:16:00,
2013-10-10 17:21:00,61.9,57.4,30.17,NNE,20,7.0,19.0,85,0.00,,,0.00,meteohub,2013-10-10 21:21:00,
2013-10-10 17:26:00,61.9,57.4,30.17,NNE,22,10.0,19.0,85,0.00,,,0.00,meteohub,2013-10-10 21:26:00,
2013-10-10 17:31:00,61.9,57.4,30.17,ENE,74,5.0,19.0,85,0.00,,,0.00,meteohub,2013-10-10 21:31:00,
2013-10-10 17:36:00,61.5,57.0,30.17,NE,49,10.0,17.0,85,0.00,,,0.00,meteohub,2013-10-10 21:36:00,
2013-10-10 17:41:00,61.5,57.0,30.17,NE,45,3.0,17.0,85,0.00,,,0.00,meteohub,2013-10-10 21:41:00,
2013-10-10 17:46:00,61.3,56.8,30.16,NNE,12,3.0,17.0,85,0.00,,,0.00,meteohub,2013-10-10 21:46:00,
2013-10-10 17:51:00,61.2,56.7,30.17,North,6,3.0,17.0,85,0.00,,,0.00,meteohub,2013-10-10 21:51:00,
2013-10-10 17:56:00,61.0,56.5,30.17,NNE,25,6.0,17.0,85,0.00,,,0.00,meteohub,2013-10-10 21:56:00,
2013-10-10 18:01:00,60.8,56.3,30.16,NE,34,14.0,18.0,85,0.00,,,0.00,meteohub,2013-10-10 22:01:00,
2013-10-10 18:06:00,60.6,56.1,30.16,NNE,20,4.0,18.0,85,0.00,,,0.00,meteohub,2013-10-10 22:06:00,
2013-10-10 18:11:00,60.4,56.3,30.16,NE,47,5.0,17.0,86,0.00,,,0.00,meteohub,2013-10-10 22:11:00,
2013-10-10 18:16:00,60.4,56.3,30.16,NNE,15,9.0,16.0,86,0.00,,,0.00,meteohub,2013-10-10 22:16:00,
2013-10-10 18:21:00,60.3,56.1,30.16,NE,54,12.0,15.0,86,0.00,,,0.00,meteohub,2013-10-10 22:21:00,
2013-10-10 18:26:00,60.1,55.9,30.17,NNE,30,10.0,15.0,86,0.00,,,0.00,meteohub,2013-10-10 22:26:00,
2013-10-10 18:31:00,60.1,55.9,30.17,ENE,59,4.0,16.0,86,0.00,,,0.00,meteohub,2013-10-10 22:31:00,
2013-10-10 18:36:00,60.1,55.9,30.17,North,6,1.0,16.0,86,0.00,,,0.00,meteohub,2013-10-10 22:36:00,
2013-10-10 18:41:00,60.1,56.1,30.17,NNW,337,4.0,16.0,87,0.00,,,0.00,meteohub,2013-10-10 22:41:00,
2013-10-10 18:46:00,59.9,55.9,30.17,NNE,25,4.0,15.0,87,0.00,,,0.00,meteohub,2013-10-10 22:46:00,
2013-10-10 18:51:00,59.7,55.8,30.18,NNE,30,2.0,12.0,87,0.00,,,0.00,meteohub,2013-10-10 22:51:00,
2013-10-10 18:56:00,59.7,56.1,30.18,NE,42,6.0,12.0,88,0.00,,,0.00,meteohub,2013-10-10 22:56:00,
2013-10-10 19:01:00,59.7,56.1,30.18,ENE,71,1.0,15.0,88,0.00,,,0.00,meteohub,2013-10-10 23:01:00,
2013-10-10 19:06:00,59.7,56.1,30.18,NE,39,4.0,15.0,88,0.00,,,0.00,meteohub,2013-10-10 23:06:00,
2013-10-10 19:11:00,59.7,56.1,30.18,NNE,25,8.0,15.0,88,0.00,,,0.00,meteohub,2013-10-10 23:11:00,
2013-10-10 19:17:00,59.5,55.9,30.18,NE,51,7.0,13.0,88,0.00,,,0.00,meteohub,2013-10-10 23:17:00,
2013-10-10 19:22:00,59.5,56.3,30.18,ENE,63,8.0,14.0,89,0.00,,,0.00,meteohub,2013-10-10 23:22:00,
2013-10-10 19:27:00,59.5,56.3,30.18,NE,55,6.0,14.0,89,0.00,,,0.00,meteohub,2013-10-10 23:27:00,
2013-10-10 19:32:00,59.5,56.3,30.18,NE,36,3.0,14.0,89,0.00,,,0.00,meteohub,2013-10-10 23:32:00,
2013-10-10 19:37:00,59.5,56.3,30.17,ENE,63,6.0,14.0,89,0.00,,,0.00,meteohub,2013-10-10 23:37:00,
2013-10-10 19:42:00,59.5,56.3,30.17,NNW,337,2.0,14.0,89,0.00,,,0.00,meteohub,2013-10-10 23:42:00,
2013-10-10 19:47:00,59.4,56.1,30.17,NE,49,6.0,14.0,89,0.00,,,0.00,meteohub,2013-10-10 23:47:00,
2013-10-10 19:52:00,59.4,56.5,30.17,WNW,302,1.0,15.0,90,0.00,,,0.00,meteohub,2013-10-10 23:52:00,
2013-10-10 19:57:00,59.2,56.3,30.17,ENE,60,4.0,15.0,90,0.00,,,0.00,meteohub,2013-10-10 23:57:00,
2013-10-10 20:02:00,59.2,56.3,30.17,NE,39,8.0,15.0,90,0.00,,,0.00,meteohub,2013-10-11 00:02:00,
2013-10-10 20:07:00,59.2,56.3,30.17,ENE,60,6.0,15.0,90,0.00,,,0.00,meteohub,2013-10-11 00:07:00,
2013-10-10 20:12:00,59.0,56.1,30.17,NE,44,3.0,15.0,90,0.00,,,0.00,meteohub,2013-10-11 00:12:00,
2013-10-10 20:17:00,58.8,55.9,30.17,North,1,8.0,13.0,90,0.00,,,0.00,meteohub,2013-10-11 00:17:00,
2013-10-10 20:22:00,58.8,55.9,30.17,NNE,15,5.0,15.0,90,0.00,,,0.00,meteohub,2013-10-11 00:22:00,
2013-10-10 20:27:00,58.8,55.9,30.17,North,352,6.0,15.0,90,0.00,,,0.00,meteohub,2013-10-11 00:27:00,
2013-10-10 20:32:00,58.8,55.9,30.17,NNE,29,3.0,15.0,90,0.00,,,0.00,meteohub,2013-10-11 00:32:00,
2013-10-10 20:37:00,58.6,55.9,30.17,NNE,18,10.0,14.0,91,0.00,,,0.00,meteohub,2013-10-11 00:37:00,
2013-10-10 20:42:00,58.6,55.9,30.17,NNE,30,6.0,16.0,91,0.00,,,0.00,meteohub,2013-10-11 00:42:00,
2013-10-10 20:47:00,58.5,55.8,30.17,NNE,20,7.0,16.0,91,0.00,,,0.00,meteohub,2013-10-11 00:47:00,
2013-10-10 20:52:00,58.5,55.8,30.17,NE,53,9.0,16.0,91,0.00,,,0.00,meteohub,2013-10-11 00:52:00,
2013-10-10 20:57:00,58.5,55.8,30.17,NNE,25,7.0,17.0,91,0.00,,,0.00,meteohub,2013-10-11 00:57:00,
2013-10-10 21:02:00,58.5,55.8,30.17,NNW,342,4.0,17.0,91,0.00,,,0.00,meteohub,2013-10-11 01:02:00,
2013-10-10 21:07:00,58.5,55.8,30.17,ENE,71,6.0,17.0,91,0.00,,,0.00,meteohub,2013-10-11 01:07:00,
2013-10-10 21:12:00,58.5,55.8,30.17,NNE,31,8.0,14.0,91,0.00,,,0.00,meteohub,2013-10-11 01:12:00,
2013-10-10 21:17:00,58.5,56.1,30.17,ENE,61,2.0,14.0,92,0.00,,,0.00,meteohub,2013-10-11 01:17:00,
2013-10-10 21:22:00,58.3,55.9,30.17,NNE,25,10.0,12.0,92,0.00,,,0.00,meteohub,2013-10-11 01:22:00,
2013-10-10 21:27:00,58.3,55.9,30.17,NNE,25,5.0,12.0,92,0.00,,,0.00,meteohub,2013-10-11 01:27:00,
2013-10-10 21:32:00,58.3,55.9,30.17,NNW,342,5.0,12.0,92,0.00,,,0.00,meteohub,2013-10-11 01:32:00,
2013-10-10 21:37:00,58.3,55.9,30.16,NNE,33,10.0,14.0,92,0.00,,,0.00,meteohub,2013-10-11 01:37:00,
2013-10-10 21:42:00,58.3,55.9,30.16,North,1,4.0,17.0,92,0.00,,,0.00,meteohub,2013-10-11 01:42:00,
2013-10-10 21:47:00,58.3,55.9,30.16,NW,326,7.0,17.0,92,0.00,,,0.00,meteohub,2013-10-11 01:47:00,
2013-10-10 21:52:00,58.3,56.3,30.16,NNE,25,2.0,15.0,93,0.00,,,0.00,meteohub,2013-10-11 01:52:00,
2013-10-10 21:56:00,58.3,56.3,30.17,NNE,29,6.0,13.0,93,0.00,,,0.00,meteohub,2013-10-11 01:56:00,
2013-10-10 22:01:00,58.3,56.3,30.17,NNE,26,2.0,16.0,93,0.00,,,0.00,meteohub,2013-10-11 02:01:00,
2013-10-10 22:06:00,58.3,56.3,30.17,NE,52,8.0,16.0,93,0.00,,,0.00,meteohub,2013-10-11 02:06:00,
2013-10-10 22:12:00,58.3,56.3,30.16,NNE,30,8.0,16.0,93,0.00,,,0.00,meteohub,2013-10-11 02:12:00,
2013-10-10 22:17:00,58.3,56.3,30.17,NNE,20,9.0,16.0,93,0.00,,,0.00,meteohub,2013-10-11 02:17:00,
2013-10-10 22:22:00,58.3,56.3,30.16,NNE,33,11.0,16.0,93,0.00,,,0.00,meteohub,2013-10-11 02:22:00,
2013-10-10 22:27:00,58.3,56.3,30.16,NE,34,7.0,16.0,93,0.00,,,0.00,meteohub,2013-10-11 02:27:00,
2013-10-10 22:32:00,58.3,56.3,30.16,NNE,25,9.0,14.0,93,0.00,,,0.00,meteohub,2013-10-11 02:32:00,
2013-10-10 22:37:00,58.3,56.3,30.16,NNE,31,9.0,14.0,93,0.00,,,0.00,meteohub,2013-10-11 02:37:00,
2013-10-10 22:42:00,58.3,56.3,30.16,North,4,11.0,14.0,93,0.00,,,0.00,meteohub,2013-10-11 02:42:00,
2013-10-10 22:47:00,58.3,56.5,30.16,North,11,5.0,14.0,94,0.00,,,0.00,meteohub,2013-10-11 02:47:00,
2013-10-10 22:52:00,58.3,56.5,30.16,NE,41,6.0,17.0,94,0.00,,,0.00,meteohub,2013-10-11 02:52:00,
2013-10-10 22:57:00,58.3,56.5,30.16,North,6,9.0,17.0,94,0.00,,,0.00,meteohub,2013-10-11 02:57:00,
2013-10-10 23:02:00,58.3,56.5,30.16,ENE,68,9.0,17.0,94,0.00,,,0.00,meteohub,2013-10-11 03:02:00,
2013-10-10 23:07:00,58.3,56.5,30.15,NNW,345,5.0,14.0,94,0.00,,,0.00,meteohub,2013-10-11 03:07:00,
2013-10-10 23:12:00,58.3,56.5,30.15,NNE,15,4.0,16.0,94,0.00,,,0.00,meteohub,2013-10-11 03:12:00,
2013-10-10 23:17:00,58.3,56.5,30.15,NNW,334,4.0,16.0,94,0.00,,,0.00,meteohub,2013-10-11 03:17:00,
2013-10-10 23:22:00,58.3,56.5,30.15,NNE,23,10.0,14.0,94,0.00,,,0.00,meteohub,2013-10-11 03:22:00,
2013-10-10 23:27:00,58.3,56.5,30.14,NNE,15,4.0,14.0,94,0.00,,,0.00,meteohub,2013-10-11 03:27:00,
2013-10-10 23:32:00,58.3,56.5,30.14,NNW,328,0.0,14.0,94,0.00,,,0.00,meteohub,2013-10-11 03:32:00,
2013-10-10 23:37:00,58.3,56.5,30.14,NE,49,8.0,13.0,94,0.00,,,0.00,meteohub,2013-10-11 03:37:00,
2013-10-10 23:42:00,58.3,56.5,30.14,North,11,4.0,15.0,94,0.00,,,0.00,meteohub,2013-10-11 03:42:00,
2013-10-10 23:47:00,58.3,56.5,30.14,NNE,33,7.0,16.0,94,0.00,,,0.00,meteohub,2013-10-11 03:47:00,
2013-10-10 23:52:00,58.3,56.5,30.14,NE,47,7.0,16.0,94,0.00,,,0.00,meteohub,2013-10-11 03:52:00,
2013-10-10 23:57:00,58.3,56.5,30.13,NE,43,5.0,16.0,94,0.00,,,0.00,meteohub,2013-10-11 03:57:00,